User: anonymous   Login
Location: Unspecified
(0.0000°N, 0.0000°E)
Time: 12:24:14
(UTC+01:00)
Language:

SWIFT - Orbit

View from above orbital plane
View from above orbital plane
View from above satellite
View from above satellite

Ground track
Ground track

The orbit data is extracted from the following two-line orbital elements,

1 28485U 04047A   14355.36038780  .00010936  00000-0  81352-3 0  8355
2 28485 020.5589 357.4580 0011779 298.2732 061.6512 15.00338792551323
Epoch (UTC): 21 December 2014 08:38:57
Eccentricity: 0.0011779
inclination: 20.5589°
perigee height: 557 km
apogee height: 574 km
right ascension of ascending node: 357.4580°
argument of perigee: 298.2732°
revolutions per day: 15.00338792
mean anomaly at epoch: 61.6512°
orbit number at epoch: 55132

The dashed part of the orbit path shows where the satellite is in the earth's shadow,  

DLR